Погода в Владимирском Лагере

Россия / Псковская область     58°13′40″N   29°03′18″E
темп.,
°C
ветер,
м/с
пор.,
м/с
влажн.,
%
обл.,
%
осадки,
мм/ч
давл.,
гПа
погр.,
м
5 марта, пт
пт500:00−4зсз378023 0.0 1007439
03:00−5зсз258832 0.0 1008267
06:00−4сз258229 0.0 1008524
09:00−5ссз477364 0.1 1010847
12:00−4сз3673100 0.1 1012753
15:00−2ссз4657100 0.6 10141194
18:00−3сз365996 0.2 10151186
21:00−5сз376754 0.2 1017691
6 марта, сб
сб600:00−5сз378025 0.0 1018453
03:00−6зсз369034 0.0 1019310
06:00−7зсз379214 0.0 1018287
09:00−6з37858 0.0 1018403
12:00−3зюз58610 0.0 1017875
15:00−2юз6126248 0.0 10131175
18:00−2зюз81775100 0.5 10081505
21:000зюз81859100 0.7 10041461
7 марта, вс
вс700:00−1зюз91883100 0.1 9981359
03:00−2сз71284100 3.1 9961084
06:00−5з4116899 0.6 9951482
09:00−7зсз7156092 1.4 9962194
12:00−4з71454100 0.2 9942162
15:00−4зсз81581100 0.9 9931520
18:00−5сз71453100 1.3 9942136
21:00−8ссз6117085 1.5 9981420
8 марта, пн
пн800:00−9сз397462 0.0 1002877
03:00−8ссз488881 0.3 1004887
06:00−9ссз4988100 0.1 1006718
09:00−11ссз4984100 0.1 1008603
12:00−10ссз5874100 0.1 1011696
15:00−8ссз5870100 0.1 1013781
18:00−10с4877100 0.0 1015731
21:00−12с4886100 0.0 1017582
9 марта, вт
вт900:00−13с3688100 0.0 1019486
03:00−14ссз259097 0.0 1020315
06:00−15сз139322 0.0 1021143
09:00−13з238043 0.0 1021211
12:00−9юз3569100 0.0 1020418
15:00−6юз51064100 0.0 1018875
18:00−4зюз61291100 0.2 10151008
21:00−4з61392100 1.3 1015985